Location: Newark
(40.2531°N, 0.7525°W)
Time: 10:03:10
(UTC+00:00)

Tiangong 2 - Visible Passes

Search period start: 21 March 2019 00:00
Search period end: 31 March 2019 00:00
Orbit: 379 x 390 km, 42.8° (Epoch: 21 March)

Date Brightness Start Highest point End Pass type
(mag) Time Alt. Az. Time Alt. Az. Time Alt. Az.
21 Mar 2.4 04:07:14 40° E 04:07:14 40° E 04:09:27 10° E visible
22 Mar 1.2 04:42:57 45° WSW 04:43:31 54° SSW 04:46:38 10° SE visible
23 Mar 3.9 03:46:33 15° ESE 03:46:33 15° ESE 03:47:14 10° ESE visible
23 Mar 2.8 05:18:47 13° WSW 05:20:30 19° SSW 05:22:50 10° SSE visible
24 Mar 2.9 04:22:32 22° SSE 04:22:32 22° SSE 04:24:02 10° SE visible
29 Mar 3.2 19:09:33 10° SSE 19:10:47 12° SE 19:11:18 11° SE visible
30 Mar 1.8 19:44:42 10° SW 19:47:31 35° SSE 19:47:31 35° SSE visible
